Location: Cactus School
(34.5700°N, 118.0931°W)
Time: 17:53:06
(UTC-07:00)

Transit 4A - Pass Details

Date: 14 April 2024
Orbit: 871 x 971 km, 66.8° (Epoch: 21 May)

Event Time Altitude Azimuth Distance (km) Brightness Sun altitude
Rises 00:42:05 0° 328° (NNW) 3,463 11.5 -45.7°
Enters shadow 00:44:35 10° 324° (NW) 2,531 10.6 -45.8°
Reaches altitude 10° 00:44:36 10° 324° (NW) 2,525 - -45.8°
Maximum altitude 00:50:15 54° 248° (WSW) 1,057 - -45.8°
Drops below altitude 10° 00:55:58 10° 172° (S) 2,550 - -45.8°
Sets 00:58:31 0° 168° (SSE) 3,500 - -45.8°
